This is the latest recevied weather packets stored in our database for station/object N7CW. If no packets are shown the sender has not sent any weather packets the latest 10 day(s).
| Time | Temp. | Humidity | Pressure | Rain* | Wind** | Luminosity | Snow |
|---|---|---|---|---|---|---|---|
| 1777715413 | 6.67° C | 43% | 1018.4 hPa | 0 mm | - | 0 W/m² | - |
| 1777715109 | 6.67° C | 43% | 1018.5 hPa | 0 mm | - | 0 W/m² | - |
| 1777714808 | 7.22° C | 43% | 1018.5 hPa | 0 mm | - | 0 W/m² | - |
| 1777714506 | 7.78° C | 41% | 1018.7 hPa | 0 mm | - | 0 W/m² | - |
| 1777714203 | 8.33° C | 40% | 1018.5 hPa | 0 mm | - | 0 W/m² | - |
| 1777713900 | 7.78° C | 40% | 1018.5 hPa | 0 mm | - | 0 W/m² | - |
| 1777713598 | 7.22° C | 42% | 1018.5 hPa | 0 mm | - | 0 W/m² | - |
| 1777713294 | 7.22° C | 42% | 1018.6 hPa | 0 mm | - | 0 W/m² | - |
| 1777712992 | 7.78° C | 41% | 1018.5 hPa | 0 mm | - | 0 W/m² | - |
| 1777712688 | 7.22° C | 40% | 1018.5 hPa | 0 mm | - | 0 W/m² | - |
| 1777712384 | 7.78° C | 40% | 1018.4 hPa | 0 mm | - | 0 W/m² | - |
| 1777712081 | 6.67° C | 42% | 1018.6 hPa | 0 mm | - | 0 W/m² | - |
| 1777711778 | 7.22° C | 42% | 1018.7 hPa | 0 mm | - | 0 W/m² | - |
| 1777711475 | 7.78° C | 40% | 1018.6 hPa | 0 mm | - | 0 W/m² | - |
| 1777711171 | 7.78° C | 40% | 1018.7 hPa | 0 mm | - | 0 W/m² | - |
| 1777710867 | 8.33° C | 40% | 1018.5 hPa | 0 mm | - | 0 W/m² | - |
| 1777710565 | 7.78° C | 40% | 1018.5 hPa | 0 mm | - | 0 W/m² | - |
| 1777710262 | 7.78° C | 40% | 1018.6 hPa | 0 mm | - | 0 W/m² | - |
| 1777709959 | 7.78° C | 40% | 1018.7 hPa | 0 mm | - | 0 W/m² | - |
| 1777709657 | 6.67° C | 40% | 1018.6 hPa | 0 mm | - | 0 W/m² | - |
| 1777709353 | 6.67° C | 41% | 1018.7 hPa | 0 mm | - | 0 W/m² | - |
| 1777709051 | 7.22° C | 40% | 1018.6 hPa | 0 mm | - | 0 W/m² | - |
| 1777708748 | 6.67° C | 41% | 1018.7 hPa | 0 mm | - | 0 W/m² | - |
| 1777708445 | 7.78° C | 40% | 1018.8 hPa | 0 mm | - | 0 W/m² | - |
| 1777708144 | 7.78° C | 40% | 1018.7 hPa | 0 mm | - | 0 W/m² | - |
* Rain latest hour (hover to see other rain measurements)
** Current wind speed in m/s (hover to see current wind gust speed)